Tracking 28052 objects as of 25-Sep-2023
HD Live streaming from Space Station
objects crossing your sky now

SL-16 DEB

Track SL-16 DEB now!
10-day predictions


NORAD ID: 22374
Int'l Code: 1992-093BP
Perigee: 816.3 km
Apogee: 1,074.0 km
Inclination: 70.8 °
Period: 103.8 minutes
Semi major axis: 7316 km
RCS: 0.0173 m2 (small)
Launch date: December 25, 1992
Source: Commonwealth of Independent States (former USSR) (CIS)
Launch site: TYURATAM MISSILE AND SPACE COMPLEX (TTMTR)

Note: This is SATELLITE DEBRIS
Your satellite tracking list
Your tracking list is empty




NASA's NSSDC Master Catalog

Two Line Element Set (TLE):
1 22374U 92093BP  23268.34407691  .00001789  00000-0  13777-2 0  9998
2 22374  70.7917   9.1748 0176163 113.0304 307.0838 13.87328022548806
Source of the keplerian elements: AFSPC